{"data":{"norad_id":48029,"epoch":"2026-09-06T06:22:52.654944Z","epoch_age_seconds":1258966,"freshness":"OLD","line1":"1 48029U 21024BE  26249.26588721  .05890864  12210-4  63652-3 0  9999","line2":"2 48029  53.0931 166.7651 0006202 228.5302 131.5212 16.36582566302907","mean_motion":16.36582566,"eccentricity":0.0006202,"inclination_deg":53.0931,"raan_deg":166.7651,"arg_perigee_deg":228.5302,"mean_anomaly_deg":131.5212,"bstar":0.00063652,"rev_number":30290,"period_min":87.988228025643,"perigee_km":170.84496863729,"apogee_km":178.97336710392,"semimajor_km":6553.0461678706,"source":"CELESTRAK","updated_at":"2026-09-06T09:00:33.738295Z"}}